Location: Newark
(51.3318°N, 0.0053°E)
Time: 02:58:31
(UTC+00:00)

LO-87 - Visible Passes

Search period start: 28 June 2022 00:00
Search period end: 08 July 2022 00:00
Orbit: 454 x 468 km, 97.4° (Epoch: 27 June)

Date Brightness Start Highest point End Pass type
(mag) Time Alt. Az. Time Alt. Az. Time Alt. Az.
28 Jun ? 21:55:58 10° ENE 21:56:56 11° ENE 21:57:54 10° NE visible
28 Jun ? 23:27:51 32° S 23:29:21 81° WSW 23:32:50 10° NNW visible
29 Jun ? 22:55:59 22° SE 22:57:50 42° ENE 23:01:08 10° N visible
30 Jun ? 00:29:51 14° WSW 00:31:01 17° W 00:33:19 10° NW visible
30 Jun ? 22:24:06 11° ESE 22:26:26 20° ENE 22:29:03 10° NNE visible
30 Jun ? 23:57:58 26° SW 23:59:13 35° W 00:02:27 10° NNW visible
01 Jul ? 21:54:26 10° ENE 21:55:09 10° ENE 21:55:51 10° NE visible
01 Jul ? 23:26:03 32° S 23:27:32 86° WSW 23:31:02 10° NNW visible
02 Jul ? 22:54:08 21° SE 22:55:58 40° ENE 22:59:15 10° N visible
03 Jul ? 00:28:00 15° WSW 00:29:08 17° W 00:31:32 10° NW visible
03 Jul ? 22:22:12 11° ESE 22:24:31 19° ENE 22:27:05 10° NNE visible
03 Jul ? 23:56:04 28° SW 23:57:16 37° W 00:00:33 10° NNW visible
04 Jul ? 21:53:02 10° ENE 21:53:11 10° ENE 21:53:20 10° NE visible
04 Jul ? 23:24:06 33° SSE 23:25:32 89° ESE 23:29:02 10° NNW visible
05 Jul ? 22:52:08 21° SE 22:53:56 38° ENE 22:57:11 10° N visible
06 Jul ? 00:26:00 16° WSW 00:27:04 18° W 00:29:34 10° NW visible
06 Jul ? 22:20:09 11° ESE 22:22:27 19° ENE 22:24:56 10° NNE visible
06 Jul ? 23:54:01 29° SW 23:55:10 40° W 23:58:29 10° NNW visible
07 Jul ? 23:22:00 34° SSE 23:23:24 84° ENE 23:26:54 10° NNW visible
